Weather History for Houma, LA

Change the Weather History Date:

Friday, September 27, 2013

  Actual Average Record
Temperature  
Mean Temperature 76 °F -  
Max Temperature 89 °F 84 °F 94 °F (1955)
Min Temperature 64 °F 65 °F 51 °F (1975)
Cooling Degree Days 12    
Growing Degree Days 26 (Base 50)    
Moisture  
Dew Point 65 °F    
Average Humidity 76    
Maximum Humidity 94    
Minimum Humidity 38    
Precipitation  
Precipitation 0.00 in - - ()
Sea Level Pressure  
Sea Level Pressure 29.96 in    
Wind  
Wind Speed 1 mph (East)    
Max Wind Speed 8 mph    
Max Gust Speed -    
Visibility 7 miles    
Events      
Averages and records for this station are not official NWS values.
T = Trace of Precipitation, MM = Missing Value Source: NWS Daily Summary

Daily Weather History Graph

Daily Weather History Graph

Search for Another Location

Airport:

Trip Planner

Search our weather history database for the weather conditions in past years. The results will help you decide how hot, cold, wet, or windy it might be!

Date:

Astronomy

Sep. 27, 2013 Rise Set
Actual Time 6:53 AM CDT 6:52 PM CDT
Civil Twilight 6:30 AM CDT 7:16 PM CDT
Nautical Twilight 6:02 AM CDT 7:44 PM CDT
Astronomical Twilight 5:34 AM CDT 8:11 PM CDT
Moon 12:14 AM CDT (9/27) 2:07 PM CDT (9/27)
Length of Visible Light 12h 46m
Length of Day
11h 58m
Last Quarter, 45% of the Moon is Illuminated
Sep 27
Last Quarter
Oct 4
New
Oct 11
First Quarter
Oct 18
Full
Oct 26
Last Quarter

Hourly Weather History & Observations

Time (CDT) Temp. Heat Index Dew Point Humidity Pressure Visibility Wind Dir Wind Speed Gust Speed Precip Events Conditions
12:15 AM 68.2 °F - 65.3 °F 90% 29.93 in 7.0 mi Calm Calm - N/A   Clear
12:35 AM 67.6 °F - 64.6 °F 90% 29.93 in 7.0 mi Calm Calm - N/A   Clear
12:55 AM 68.2 °F - 65.3 °F 90% 29.93 in 7.0 mi Calm Calm - N/A   Clear
1:15 AM 68.0 °F - 65.1 °F 90% 29.93 in 4.0 mi Calm Calm - N/A   Clear
1:35 AM 67.3 °F - 64.6 °F 91% 29.93 in 0.8 mi Calm Calm - N/A   Mist
1:55 AM 66.7 °F - 64.0 °F 91% 29.93 in 1.8 mi Calm Calm - N/A   Mist
2:15 AM 66.4 °F - 63.7 °F 91% 29.93 in 2.5 mi Calm Calm - N/A   Clear
2:35 AM 66.7 °F - 64.2 °F 92% 29.93 in 4.0 mi Calm Calm - N/A   Clear
2:55 AM 65.7 °F - 63.0 °F 91% 29.92 in 7.0 mi Calm Calm - N/A   Clear
3:15 AM 66.0 °F - 63.3 °F 91% 29.92 in 7.0 mi Calm Calm - N/A   Clear
3:35 AM 65.5 °F - 63.0 °F 92% 29.92 in 7.0 mi Calm Calm - N/A   Clear
3:55 AM 65.3 °F - 62.6 °F 91% 29.92 in 7.0 mi Calm Calm - N/A   Clear
4:15 AM 64.9 °F - 62.2 °F 91% 29.92 in 7.0 mi Calm Calm - N/A   Clear
4:35 AM 64.4 °F - 61.7 °F 91% 29.93 in 5.0 mi Calm Calm - N/A   Clear
4:55 AM 64.6 °F - 61.9 °F 91% 29.93 in 5.0 mi Calm Calm - N/A   Clear
5:15 AM 64.8 °F - 62.2 °F 92% 29.94 in 1.0 mi Calm Calm - N/A   Mist
5:35 AM 64.6 °F - 62.1 °F 92% 29.94 in 1.5 mi Calm Calm - N/A   Mist
5:55 AM 64.2 °F - 61.5 °F 91% 29.95 in 2.0 mi Calm Calm - N/A   Clear
6:50 AM 64.4 °F - 62.6 °F 94% 29.97 in 6.0 mi Calm Calm - N/A   Clear
7:50 AM 69.8 °F - 66.2 °F 88% 30.00 in 6.0 mi Calm Calm - N/A   Clear
8:50 AM 78.8 °F - 69.8 °F 74% 30.00 in 7.0 mi Calm Calm - N/A   Clear
9:55 AM 82.4 °F 84.6 °F 66.2 °F 58% 30.01 in 7.0 mi Calm Calm - N/A   Clear
10:50 AM 86.0 °F 85.4 °F 59.0 °F 40% 30.01 in 7.0 mi Calm Calm - N/A   Scattered Clouds
11:50 AM 87.8 °F 87.1 °F 59.0 °F 38% 30.01 in 7.0 mi Calm Calm - N/A   Scattered Clouds
12:50 PM 87.8 °F 87.1 °F 59.0 °F 38% 29.99 in 7.0 mi Calm Calm - N/A   Scattered Clouds
1:50 PM 87.8 °F 87.6 °F 60.8 °F 40% 29.97 in 7.0 mi NNW 4.6 mph - N/A   Scattered Clouds
2:50 PM 89.6 °F 89.5 °F 60.8 °F 38% 29.95 in 7.0 mi South 4.6 mph - N/A   Scattered Clouds
3:50 PM 87.8 °F 88.5 °F 62.6 °F 43% 29.95 in 7.0 mi East 3.5 mph - N/A   Scattered Clouds
4:50 PM 84.2 °F 85.6 °F 64.4 °F 51% 29.95 in 7.0 mi East 3.5 mph - N/A   Scattered Clouds
5:50 PM 84.2 °F 85.6 °F 64.4 °F 51% 29.95 in 7.0 mi ESE 3.5 mph - N/A   Scattered Clouds
6:50 PM 80.6 °F 82.7 °F 66.2 °F 61% 29.96 in 7.0 mi East 4.6 mph - N/A   Scattered Clouds
7:15 PM 79.7 °F - 67.8 °F 67% 29.96 in 10.0 mi East 8.1 mph - N/A   Clear
7:35 PM 78.8 °F - 68.0 °F 69% 29.96 in 10.0 mi East 8.1 mph - N/A   Clear
7:55 PM 78.1 °F - 68.0 °F 71% 29.97 in 10.0 mi East 8.1 mph - N/A   Clear
8:15 PM 78.1 °F - 67.8 °F 71% 29.98 in 10.0 mi East 5.8 mph - N/A   Clear
8:35 PM 77.2 °F - 67.8 °F 73% 29.98 in 10.0 mi East 5.8 mph - N/A   Clear
8:55 PM 76.8 °F - 68.0 °F 74% 29.99 in 10.0 mi East 6.9 mph - N/A   Clear
9:15 PM 76.5 °F - 68.0 °F 75% 29.99 in 10.0 mi East 6.9 mph - N/A   Clear
9:35 PM 76.1 °F - 68.2 °F 76% 30.00 in 10.0 mi East 5.8 mph - N/A   Clear
9:55 PM 76.1 °F - 68.4 °F 77% 30.00 in 10.0 mi East 5.8 mph - N/A   Clear
10:15 PM 75.2 °F - 68.4 °F 79% 30.01 in 7.0 mi East 4.6 mph - N/A   Clear
10:35 PM 74.5 °F - 68.0 °F 80% 30.01 in 7.0 mi Calm Calm - N/A   Clear
10:55 PM 73.6 °F - 68.2 °F 83% 30.01 in 10.0 mi Calm Calm - N/A   Clear
11:15 PM 73.9 °F - 68.4 °F 83% 30.01 in 10.0 mi East 5.8 mph - N/A   Clear
11:35 PM 73.8 °F - 68.2 °F 83% 30.01 in 10.0 mi East 3.5 mph - N/A   Clear
11:55 PM 73.4 °F - 68.2 °F 84% 30.00 in 7.0 mi ESE 3.5 mph - N/A   Clear